Location: Newark
(44.3681°N, 100.3364°W)
Time: 07:55:42
(UTC+00:00)

deb Explorer IX - Pass Details

Date: 21 February 2020
Orbit: 548 x 1100 km, 38.8° (Epoch: 07 April)

Event Time Altitude Azimuth Distance (km) Brightness Sun altitude
Rises 21:24:50 0° 267° (W) 2,707 ? 25.5°
Reaches altitude 10° 21:27:18 10° 254° (WSW) 1,826 ? 25.2°
Maximum altitude 21:30:45 26° 197° (SSW) 1,142 ? 24.8°
Drops below altitude 10° 21:34:26 10° 140° (SE) 1,947 ? 24.3°
Sets 21:37:09 0° 128° (SE) 2,928 ? 24.0°
